DECAYED

COSMOS 2251 DEB, 33931 (Decayed)

Orbit data source: Space-Track

COSMOS 2251 DEB, 33931 was space debris in LEO originally from a launch on Wed, 16 Jun 1993 UTC launched from the Plesetsk Missile And Space Complex (PKMTR). The debris from Iridium 33, an American commercial communications satellite, has been tracked extensively since its accidental collision with the defunct Russian satellite Cosmos 2251 in 2009. This event, occurring at high speed in low Earth orbit (LEO), generated thousands of pieces of space debris, significantly increasing the risk of further collisions. The Iridium 33 debris cloud has impacted space traffic management and orbital debris mitigation strategies, making it a subject of ongoing study in space situational awareness.

Not visible in the next 10 days
Identifier
33931, 1993-036EL
Orbit
Decayed
Country
Flag of CISCIS
Related business
Manufacturer
Unknown
Mission
Decayed spacecraft
Bus & Motor
Unknown
Mass
Unknown
Launch date (UTC)
1993-06-16 (33 years ago)
Launch vehicle
Unknown
Launch site
Plesetsk Missile And Space Complex (PKMTR)
Object type
Payload
Rocket body
Debris
Shape & HBR
Unknown shape, 0.3 m
Radar Cross Section
Small (<0.1 m²)

Expand to show TLE details & history
Last TLE update: 6 months ago

TLE from 6 months ago
0 COSMOS 2251 DEB
1 33931U 93036EL  25284.35698560  .09497339  18896-5  54229-2 0  9998
2 33931  73.9633  17.8682 0010704 353.3023   6.8080 16.18794626884074
Epoch: 2025-10-11T08:34Z
TLE epoch observation values (Epoch: 2025-10-11T08:34:03.555Z)
Latitude
-0.00007°
Longitude
-130.83627°
Altitude
218.633 km
Speed
7.78 km/s
True Right ascension
01h 11m 28s
True Declination
0° 00' 00"
Sunlit
Object was in full shadow at epoch
Visualization orbit readout
Latitude
Unknown
Longitude
Unknown
Altitude
Unknown
Speed
Unknown
Apparent Right ascension
Unknown
Apparent Declination
Unknown
Sunlit
N/A
Visualization observer readout
Local Sidereal Time
00:40:34
Azimuth
Unknown
Elevation
Unknown
Doppler factor
Unknown
Orbital elements
Apogee altitude
227.322 km
Perigee altitude
213.196 km
Semi-major axis
6,598.396 km
Eccentricity
0.00107
Inclination
73.9633°
RAAN
17.8682°
Arg. of periapsis
353.3023°
True anomaly
6.82256°
Mean anomaly
6.808°
Eccentric anomaly
6.81528°
Mean motion
4.04935 °/min
Orbital period
88.9 mins
BSTAR
0.0054229

Documentation

Showing up to 5 results
|